Date,TemperatureHighF,TemperatureAvgF,TemperatureLowF,DewpointHighF,DewpointAvgF,DewpointLowF,HumidityHigh,HumidityAvg,HumidityLow,PressureMaxIn,PressureMinIn,WindSpeedMaxMPH,WindSpeedAvgMPH,GustSpeedMaxMPH,PrecipitationSumIn
2013-2-1,66.8,49.8,33.7,50.1,43.4,32.9,98,80,52,30.25,30.13,7,0,7,0.00
2013-2-2,61.7,52.3,43.5,51.8,47.6,42.1,98,85,67,30.29,30.19,7,0,7,0.00
2013-2-3,64.3,50.7,42.0,52.1,46.7,41.5,99,87,61,30.24,30.10,7,1,7,0.00
2013-2-4,65.2,49.2,37.4,52.2,44.8,36.9,99,86,59,30.20,30.04,6,0,6,0.00
2013-2-5,63.2,49.6,38.2,52.8,45.6,37.6,99,87,65,30.10,29.99,17,3,17,0.00
2013-2-6,53.2,43.8,34.9,47.3,41.5,34.1,97,92,78,30.21,30.10,9,1,9,0.00
2013-2-7,56.7,44.1,32.4,50.0,41.3,31.9,100,91,70,30.19,30.00,18,2,18,0.28
2013-2-8,50.7,45.1,40.8,44.8,41.6,38.8,98,88,67,30.00,29.91,18,2,18,0.03
2013-2-9,55.4,43.1,32.3,41.1,36.1,31.5,98,79,47,30.12,29.97,14,1,14,0.00
2013-2-10,56.7,42.9,32.0,41.0,35.6,30.1,94,77,48,30.13,30.03,9,1,9,0.00
2013-2-11,59.5,44.6,31.8,41.8,36.2,30.2,95,75,45,30.26,30.09,7,1,7,0.00
2013-2-12,62.7,46.4,32.8,42.0,36.2,31.1,95,71,40,30.38,30.26,8,0,8,0.00
2013-2-13,64.3,47.7,32.4,43.9,37.6,30.5,94,71,41,30.35,30.20,9,1,9,0.00
2013-2-14,66.6,49.7,34.3,45.7,40.1,32.6,95,72,43,30.27,30.15,8,0,8,0.00
2013-2-15,72.0,52.4,36.7,49.7,41.9,35.1,96,71,32,30.30,30.22,6,0,6,0.00
2013-2-16,71.3,53.3,37.2,49.5,42.4,35.6,96,71,33,30.25,30.03,6,0,6,0.00
2013-2-17,69.0,51.6,35.6,47.7,42.0,34.0,97,73,39,30.03,29.93,11,1,11,0.00
2013-2-18,68.7,51.4,36.0,50.7,42.0,34.6,97,73,35,30.02,29.87,19,2,19,0.00
2013-2-19,55.2,47.2,39.5,44.0,39.7,37.9,95,76,54,29.97,29.72,13,3,19,0.25
2013-2-20,52.1,43.1,37.2,42.9,38.5,34.9,96,84,66,30.08,29.80,12,2,12,0.00
2013-2-21,56.1,44.4,33.9,42.0,37.6,32.3,96,79,54,30.19,30.04,9,1,9,0.00
2013-2-22,60.9,47.8,35.0,44.3,39.0,33.1,95,74,45,30.27,30.18,9,1,10,0.00
2013-2-23,60.4,48.3,36.8,46.0,38.6,31.8,96,71,45,30.24,30.08,22,3,22,0.00
2013-2-24,60.4,46.4,35.6,40.1,34.5,29.9,83,65,37,30.26,30.14,9,1,9,0.00
2013-2-25,65.5,49.2,32.7,42.4,36.6,30.9,95,66,32,30.29,30.13,9,1,9,0.00
2013-2-26,62.9,49.0,35.1,44.8,39.7,33.1,94,72,48,30.22,30.11,10,1,10,0.00
2013-2-27,67.8,51.0,35.7,46.9,39.7,33.8,94,69,37,30.35,30.21,9,0,9,0.00
2013-2-28,71.0,53.6,37.0,46.7,40.7,34.8,93,65,33,30.44,30.34,10,1,10,0.00